contact:dominique.lefevre@mio.osupytheas.fr, maurice.libes@osupytheas.fr, didier.mallarino@osupytheas.fr
Project:EMSO http://www.emso-fr.org/EMSO-France
Depth: 2436.0 m
Title:EMSO Ligure Ouest : Data MII capteur AQUADOPP
Date,Latitude,Longitude,X_East,Y_North,Z_Up,Amplitude_X,Amplitude_Y,Amplitude_Z,Batterie,SoundSpeed,Heading,Pitch,Roll,Pressure,TIS,Speed,Direction
, degrees North, degrees East, m.s-1, m.s-1,m.s-1, 1, 1, 1, Volt, m.s-1, degree, degree, degree, dbar, degree_C, m.s-1, degree
2021-08-27T00:04:03,42.805,6.029,0.036,-0.01,0.011,102.0,103.0,101.0,13.4,1505.2,326.7,-0.8,1.8,2470.603,13.28,0.037,105.5
2021-08-27T00:07:03,42.805,6.029,0.052,-0.008,0.039,102.0,104.0,101.0,13.4,1505.2,329.6,-0.8,1.9,2470.565,13.28,0.052,98.7
2021-08-27T00:10:03,42.805,6.029,0.055,0.004,0.032,102.0,106.0,101.0,13.4,1505.2,327.7,-0.8,1.8,2470.543,13.28,0.055,85.8
2021-08-27T00:13:03,42.805,6.029,0.04,0.026,0.077,102.0,104.0,101.0,13.3,1505.2,326.0,-0.8,1.8,2470.554,13.28,0.047,57.0
2021-08-27T00:16:03,42.805,6.029,0.035,-0.029,0.0,100.0,106.0,101.0,13.4,1505.2,325.6,-0.7,1.8,2470.551,13.28,0.045,129.6
2021-08-27T00:19:03,42.805,6.029,0.018,-0.006,0.023,102.0,104.0,101.0,13.4,1505.2,327.2,-0.8,1.8,2470.592,13.28,0.018,108.4
2021-08-27T00:22:03,42.805,6.029,0.065,-0.001,-0.02,102.0,104.0,100.0,13.4,1505.2,325.6,-0.7,1.8,2470.533,13.28,0.065,90.9
2021-08-27T00:25:03,42.805,6.029,0.046,-0.017,-0.005,101.0,105.0,101.0,13.4,1505.2,328.2,-0.7,1.8,2470.562,13.28,0.049,110.3
2021-08-27T00:28:03,42.805,6.029,0.056,-0.001,0.008,102.0,105.0,101.0,13.4,1505.2,327.8,-0.8,1.8,2470.576,13.28,0.056,91.0
2021-08-27T00:31:03,42.805,6.029,0.05,0.001,0.011,102.0,106.0,101.0,13.4,1505.2,328.9,-0.8,1.9,2470.56,13.28,0.05,88.9
2021-08-27T00:34:03,42.805,6.029,0.055,0.0,0.034,102.0,105.0,100.0,13.4,1505.2,325.3,-0.8,1.9,2470.527,13.28,0.055,90.0
2021-08-27T00:37:03,42.805,6.029,0.056,-0.005,0.023,100.0,105.0,102.0,13.4,1505.2,325.9,-0.8,1.8,2470.527,13.28,0.056,95.1
2021-08-27T00:40:03,42.805,6.029,0.014,0.002,-0.015,101.0,104.0,101.0,13.4,1505.2,329.3,-0.8,1.8,2470.524,13.28,0.014,81.9
2021-08-27T00:43:03,42.805,6.029,0.032,0.003,-0.021,102.0,104.0,101.0,13.4,1505.2,330.6,-0.8,1.8,2470.504,13.28,0.032,84.6
2021-08-27T00:46:03,42.805,6.029,0.041,-0.023,0.016,103.0,104.0,100.0,13.4,1505.2,327.0,-0.8,1.8,2470.466,13.28,0.047,119.3
2021-08-27T00:49:03,42.805,6.029,0.041,0.002,0.02,101.0,105.0,102.0,13.4,1505.2,328.3,-0.8,1.8,2470.5,13.28,0.041,87.2
2021-08-27T00:52:03,42.805,6.029,0.042,-0.025,0.025,102.0,104.0,100.0,13.3,1505.2,325.6,-0.7,1.9,2470.511,13.28,0.048,120.8
2021-08-27T00:55:03,42.805,6.029,0.026,-0.024,-0.007,102.0,104.0,101.0,13.3,1505.2,330.1,-0.7,1.8,2470.524,13.28,0.035,132.7
2021-08-27T00:58:03,42.805,6.029,0.053,-0.016,-0.021,101.0,103.0,101.0,13.3,1505.2,328.9,-0.8,1.8,2470.487,13.28,0.055,106.8
2021-08-27T01:04:03,42.805,6.029,0.039,0.003,0.03,104.0,104.0,103.0,13.3,1505.2,326.0,-0.8,1.8,2470.521,13.28,0.039,85.6
2021-08-27T01:07:03,42.805,6.029,0.039,-0.016,0.002,103.0,105.0,100.0,13.4,1505.2,327.4,-0.7,1.8,2470.518,13.28,0.042,112.3
2021-08-27T01:10:03,42.805,6.029,0.04,0.002,0.014,101.0,104.0,101.0,13.4,1505.2,327.9,-0.7,1.8,2470.544,13.28,0.04,87.1
2021-08-27T01:13:03,42.805,6.029,0.04,-0.016,0.023,101.0,105.0,102.0,13.3,1505.2,330.7,-0.8,1.8,2470.487,13.28,0.043,111.8
2021-08-27T01:16:03,42.805,6.029,0.049,-0.019,0.02,102.0,103.0,102.0,13.3,1505.2,327.7,-0.8,1.8,2470.512,13.28,0.052,111.2
2021-08-27T01:19:03,42.805,6.029,0.05,0.011,0.053,103.0,103.0,100.0,13.4,1505.2,328.5,-0.8,1.8,2470.492,13.28,0.051,77.6
2021-08-27T01:22:03,42.805,6.029,0.054,-0.004,-0.01,103.0,102.0,101.0,13.4,1505.2,326.0,-0.7,1.8,2470.451,13.28,0.054,94.2
2021-08-27T01:25:03,42.805,6.029,0.045,0.0,0.023,103.0,102.0,101.0,13.4,1505.2,327.2,-0.8,1.8,2470.467,13.28,0.045,90.0
2021-08-27T01:28:03,42.805,6.029,0.049,-0.003,0.018,102.0,103.0,101.0,13.4,1505.2,326.5,-0.8,1.8,2470.467,13.28,0.049,93.5
2021-08-27T01:31:03,42.805,6.029,0.034,-0.028,0.001,102.0,102.0,101.0,13.4,1505.2,326.7,-0.7,1.8,2470.479,13.28,0.044,129.5
2021-08-27T01:34:03,42.805,6.029,0.032,-0.019,-0.01,103.0,104.0,100.0,13.4,1505.2,325.8,-0.8,1.8,2470.449,13.28,0.037,120.7
2021-08-27T01:37:03,42.805,6.029,0.04,-0.018,0.02,105.0,102.0,101.0,13.4,1505.2,328.2,-0.7,1.9,2470.461,13.28,0.043,114.2
2021-08-27T01:40:03,42.805,6.029,0.035,-0.013,0.003,102.0,103.0,101.0,13.3,1505.2,330.3,-0.7,1.8,2470.467,13.28,0.037,110.4
2021-08-27T01:43:03,42.805,6.029,0.05,-0.005,0.02,100.0,104.0,102.0,13.3,1505.2,327.3,-0.7,1.8,2470.487,13.28,0.05,95.7
2021-08-27T01:46:03,42.805,6.029,0.029,-0.022,0.008,102.0,104.0,101.0,13.4,1505.2,329.4,-0.7,1.9,2470.482,13.28,0.036,127.2
2021-08-27T01:49:03,42.805,6.029,0.048,-0.015,0.012,103.0,103.0,101.0,13.4,1505.2,328.9,-0.7,1.8,2470.448,13.28,0.05,107.4
2021-08-27T01:52:03,42.805,6.029,0.05,-0.004,0.028,102.0,104.0,101.0,13.4,1505.2,325.0,-0.7,1.8,2470.44,13.28,0.05,94.6
2021-08-27T01:55:03,42.805,6.029,0.067,-0.02,0.009,102.0,103.0,100.0,13.4,1505.2,326.6,-0.8,1.8,2470.431,13.28,0.069,106.6
2021-08-27T01:58:03,42.805,6.029,0.065,-0.023,0.03,103.0,104.0,101.0,13.3,1505.2,328.1,-0.7,1.8,2470.435,13.28,0.068,109.5
2021-08-27T02:04:03,42.805,6.029,0.052,-0.01,0.006,101.0,103.0,100.0,13.4,1505.2,328.2,-0.8,1.8,2470.487,13.28,0.052,100.9
2021-08-27T02:07:03,42.805,6.029,0.055,-0.005,0.016,102.0,104.0,101.0,13.4,1505.2,326.1,-0.8,1.8,2470.473,13.28,0.055,95.2
2021-08-27T02:10:03,42.805,6.029,0.053,-0.021,0.023,101.0,104.0,100.0,13.4,1505.2,330.9,-0.8,1.8,2470.433,13.28,0.057,111.6
2021-08-27T02:13:03,42.805,6.029,0.036,-0.007,-0.016,99.0,102.0,101.0,13.4,1505.2,329.6,-0.8,1.8,2470.457,13.28,0.036,101.0
2021-08-27T02:16:03,42.805,6.029,0.035,-0.015,-0.035,102.0,104.0,101.0,13.4,1505.2,330.2,-0.8,1.8,2470.421,13.28,0.038,113.2
2021-08-27T02:19:03,42.805,6.029,0.015,0.001,-0.007,101.0,104.0,100.0,13.4,1505.2,325.5,-0.7,1.9,2470.44,13.28,0.015,86.2
2021-08-27T02:22:03,42.805,6.029,0.023,-0.022,0.003,101.0,102.0,102.0,13.4,1505.2,329.6,-0.7,1.8,2470.442,13.28,0.031,133.7
2021-08-27T02:25:03,42.805,6.029,0.072,-0.005,0.017,102.0,103.0,100.0,13.3,1505.2,327.2,-0.8,1.8,2470.456,13.28,0.072,94.0
2021-08-27T02:28:03,42.805,6.029,0.033,-0.019,-0.013,102.0,103.0,100.0,13.3,1505.2,329.6,-0.8,1.8,2470.448,13.28,0.038,119.9
2021-08-27T02:31:03,42.805,6.029,0.046,-0.007,0.001,102.0,102.0,101.0,13.4,1505.2,328.0,-0.7,1.8,2470.421,13.28,0.046,98.7
2021-08-27T02:34:03,42.805,6.029,0.047,-0.014,0.019,103.0,103.0,99.0,13.3,1505.2,326.3,-0.8,1.8,2470.464,13.28,0.049,106.6
2021-08-27T02:37:03,42.805,6.029,0.028,-0.01,0.02,101.0,103.0,100.0,13.3,1505.2,327.4,-0.7,1.8,2470.424,13.28,0.029,109.6
2021-08-27T02:40:03,42.805,6.029,0.043,0.007,0.008,103.0,101.0,100.0,13.4,1505.2,325.4,-0.7,1.8,2470.45,13.28,0.043,80.8
2021-08-27T02:43:03,42.805,6.029,0.08,-0.028,-0.008,102.0,101.0,100.0,13.3,1505.2,326.8,-0.8,1.8,2470.417,13.28,0.084,109.3
2021-08-27T02:46:03,42.805,6.029,0.053,-0.02,-0.018,101.0,102.0,101.0,13.4,1505.2,326.6,-0.7,1.8,2470.439,13.28,0.056,110.7
2021-08-27T02:49:03,42.805,6.029,0.015,-0.031,-0.026,100.0,105.0,101.0,13.4,1505.2,330.0,-0.8,1.8,2470.454,13.28,0.034,154.2
2021-08-27T02:52:03,42.805,6.029,0.062,-0.012,-0.012,100.0,102.0,102.0,13.4,1505.2,328.0,-0.8,1.8,2470.445,13.28,0.063,101.0
2021-08-27T02:55:03,42.805,6.029,0.03,-0.011,0.023,103.0,101.0,101.0,13.4,1505.2,329.5,-0.8,1.8,2470.411,13.28,0.031,110.1
2021-08-27T02:58:03,42.805,6.029,0.041,-0.017,-0.006,101.0,104.0,100.0,13.3,1505.2,325.2,-0.8,1.8,2470.432,13.28,0.044,112.5
2021-08-27T03:04:03,42.805,6.029,0.036,-0.016,-0.008,100.0,102.0,101.0,13.3,1505.2,329.2,-0.7,1.8,2470.464,13.28,0.039,114.0
2021-08-27T03:07:03,42.805,6.029,0.035,-0.03,-0.034,101.0,101.0,100.0,13.3,1505.2,328.7,-0.8,1.8,2470.465,13.28,0.046,130.6
2021-08-27T03:10:03,42.805,6.029,0.064,-0.004,0.007,100.0,104.0,101.0,13.4,1505.2,328.0,-0.7,1.8,2470.44,13.28,0.064,93.6
2021-08-27T03:13:03,42.805,6.029,0.033,-0.02,-0.023,102.0,102.0,99.0,13.4,1505.2,326.5,-0.8,1.8,2470.434,13.28,0.038,121.2
2021-08-27T03:16:03,42.805,6.029,0.068,-0.017,0.004,101.0,102.0,101.0,13.4,1505.2,326.7,-0.7,1.8,2470.48,13.28,0.07,104.0
2021-08-27T03:19:03,42.805,6.029,0.047,-0.034,-0.013,102.0,102.0,100.0,13.3,1505.2,327.4,-0.8,1.8,2470.432,13.28,0.058,125.9
2021-08-27T03:22:03,42.805,6.029,0.041,0.0,-0.004,101.0,103.0,101.0,13.4,1505.2,325.3,-0.8,1.8,2470.412,13.28,0.041,90.0
2021-08-27T03:25:03,42.805,6.029,0.04,-0.01,0.017,100.0,103.0,101.0,13.4,1505.2,327.8,-0.7,1.8,2470.414,13.28,0.041,104.0
2021-08-27T03:28:03,42.805,6.029,0.048,-0.019,0.006,101.0,103.0,100.0,13.4,1505.2,326.3,-0.8,1.8,2470.41,13.28,0.051,111.6
2021-08-27T03:31:03,42.805,6.029,0.069,0.0,0.047,100.0,103.0,100.0,13.4,1505.2,325.5,-0.7,1.8,2470.463,13.28,0.068,90.0
2021-08-27T03:34:03,42.805,6.029,0.038,-0.022,0.007,102.0,104.0,100.0,13.4,1505.2,331.2,-0.7,1.8,2470.474,13.28,0.043,120.1
2021-08-27T03:37:03,42.805,6.029,0.056,-0.026,-0.012,102.0,102.0,100.0,13.3,1505.2,328.3,-0.8,1.8,2470.431,13.28,0.061,114.9
2021-08-27T03:40:03,42.805,6.029,0.035,-0.005,0.024,102.0,103.0,100.0,13.4,1505.2,329.1,-0.8,1.8,2470.46,13.28,0.035,98.1
2021-08-27T03:43:03,42.805,6.029,0.035,-0.023,-0.048,101.0,103.0,100.0,13.4,1505.2,331.1,-0.8,1.8,2470.447,13.28,0.041,123.3
2021-08-27T03:46:03,42.805,6.029,0.024,0.012,0.022,102.0,102.0,101.0,13.3,1505.2,330.1,-0.8,1.8,2470.39,13.28,0.026,63.4
2021-08-27T03:49:03,42.805,6.029,0.027,-0.007,-0.011,102.0,103.0,101.0,13.4,1505.2,331.0,-0.7,1.8,2470.422,13.28,0.027,104.5
2021-08-27T03:52:03,42.805,6.029,0.077,-0.013,-0.002,101.0,101.0,100.0,13.3,1505.2,330.5,-0.8,1.8,2470.41,13.28,0.078,99.6
2021-08-27T03:55:03,42.805,6.029,0.078,0.003,0.024,101.0,104.0,99.0,13.4,1505.2,327.7,-0.7,1.8,2470.44,13.28,0.078,87.8
2021-08-27T03:58:03,42.805,6.029,0.052,-0.014,0.009,103.0,107.0,100.0,13.3,1505.2,327.2,-0.8,1.8,2470.422,13.28,0.053,105.1
2021-08-27T04:04:03,42.805,6.029,0.074,-0.033,-0.004,100.0,102.0,100.0,13.3,1505.2,325.9,-0.7,1.9,2470.448,13.28,0.081,114.0
2021-08-27T04:07:03,42.805,6.029,0.071,-0.017,0.023,101.0,101.0,100.0,13.3,1505.2,330.2,-0.8,1.8,2470.426,13.28,0.073,103.5
2021-08-27T04:10:03,42.805,6.029,0.055,-0.002,0.028,101.0,102.0,100.0,13.4,1505.2,328.7,-0.8,1.8,2470.437,13.28,0.055,92.1
2021-08-27T04:13:03,42.805,6.029,0.054,-0.012,0.003,101.0,101.0,100.0,13.3,1505.2,327.9,-0.8,1.8,2470.438,13.28,0.055,102.5
2021-08-27T04:16:03,42.805,6.029,0.05,-0.019,-0.024,100.0,101.0,101.0,13.4,1505.2,329.7,-0.7,1.8,2470.425,13.28,0.053,110.8
2021-08-27T04:19:03,42.805,6.029,0.05,0.004,0.022,102.0,102.0,100.0,13.4,1505.2,327.4,-0.7,1.8,2470.37,13.28,0.05,85.4
2021-08-27T04:22:03,42.805,6.029,0.078,-0.015,0.018,102.0,101.0,101.0,13.3,1505.2,327.7,-0.8,1.8,2470.403,13.28,0.079,100.9
2021-08-27T04:25:03,42.805,6.029,0.071,0.002,0.047,101.0,101.0,101.0,13.4,1505.2,329.2,-0.8,1.8,2470.389,13.28,0.071,88.4
2021-08-27T04:28:03,42.805,6.029,0.05,-0.039,-0.04,100.0,101.0,100.0,13.4,1505.2,329.3,-0.8,1.8,2470.402,13.28,0.063,128.0
2021-08-27T04:31:03,42.805,6.029,0.038,-0.011,0.004,100.0,101.0,101.0,13.4,1505.2,328.4,-0.7,1.8,2470.414,13.28,0.039,106.1
2021-08-27T04:34:03,42.805,6.029,0.05,-0.021,-0.009,100.0,101.0,101.0,13.4,1505.2,327.4,-0.8,1.8,2470.411,13.28,0.054,112.8
2021-08-27T04:37:03,42.805,6.029,0.06,-0.026,0.0,101.0,101.0,100.0,13.4,1505.2,327.2,-0.7,1.8,2470.439,13.28,0.065,113.4
2021-08-27T04:40:03,42.805,6.029,0.028,-0.011,-0.011,101.0,103.0,100.0,13.4,1505.2,329.6,-0.7,1.8,2470.436,13.28,0.03,111.4
2021-08-27T04:43:03,42.805,6.029,0.049,-0.021,-0.007,102.0,101.0,101.0,13.3,1505.2,327.2,-0.7,1.8,2470.375,13.28,0.053,113.2
2021-08-27T04:46:03,42.805,6.029,0.038,-0.016,0.016,101.0,103.0,100.0,13.3,1505.2,327.1,-0.8,1.8,2470.434,13.28,0.041,112.8
2021-08-27T04:49:03,42.805,6.029,0.064,-0.015,-0.023,101.0,102.0,100.0,13.4,1505.2,326.6,-0.7,1.8,2470.411,13.28,0.065,103.2
2021-08-27T04:52:03,42.805,6.029,0.053,-0.001,0.017,101.0,102.0,100.0,13.3,1505.2,325.6,-0.7,1.8,2470.433,13.28,0.053,91.1
2021-08-27T04:55:03,42.805,6.029,0.047,-0.013,0.003,101.0,103.0,100.0,13.4,1505.2,330.6,-0.8,1.8,2470.431,13.28,0.048,105.5
2021-08-27T04:58:03,42.805,6.029,0.033,-0.007,-0.005,100.0,102.0,101.0,13.4,1505.2,326.5,-0.8,1.8,2470.414,13.28,0.033,102.0
2021-08-27T05:04:03,42.805,6.029,0.021,-0.018,-0.005,100.0,102.0,100.0,13.4,1505.2,327.9,-0.8,1.8,2470.455,13.28,0.027,130.6
2021-08-27T05:07:03,42.805,6.029,0.039,-0.011,-0.008,100.0,102.0,100.0,13.3,1505.2,330.9,-0.7,1.8,2470.47,13.28,0.04,105.7
2021-08-27T05:10:03,42.805,6.029,0.055,-0.041,0.007,101.0,102.0,100.0,13.3,1505.2,329.0,-0.7,1.8,2470.453,13.28,0.068,126.7
2021-08-27T05:13:03,42.805,6.029,0.077,-0.011,0.018,101.0,103.0,100.0,13.4,1505.2,326.2,-0.8,1.8,2470.467,13.28,0.077,98.1
2021-08-27T05:16:03,42.805,6.029,0.037,-0.025,-0.023,102.0,100.0,100.0,13.4,1505.2,329.1,-0.7,1.8,2470.417,13.28,0.044,124.0
2021-08-27T05:19:03,42.805,6.029,0.038,-0.03,-0.039,99.0,103.0,100.0,13.4,1505.2,330.6,-0.7,1.8,2470.472,13.28,0.048,128.3
2021-08-27T05:22:03,42.805,6.029,0.049,-0.004,0.029,101.0,101.0,101.0,13.4,1505.2,326.9,-0.7,1.8,2470.445,13.28,0.049,94.7
2021-08-27T05:25:03,42.805,6.029,0.046,-0.017,0.006,100.0,100.0,101.0,13.4,1505.2,329.7,-0.7,1.8,2470.457,13.28,0.049,110.3
2021-08-27T05:28:03,42.805,6.029,0.065,-0.021,0.002,102.0,100.0,100.0,13.3,1505.2,326.7,-0.7,1.8,2470.419,13.28,0.068,107.9
2021-08-27T05:31:03,42.805,6.029,0.056,-0.032,-0.017,101.0,102.0,101.0,13.4,1505.2,329.8,-0.8,1.8,2470.434,13.28,0.064,119.7
2021-08-27T05:34:03,42.805,6.029,0.064,-0.01,0.003,102.0,99.0,100.0,13.4,1505.2,328.9,-0.8,1.8,2470.427,13.28,0.064,98.9
2021-08-27T05:37:03,42.805,6.029,0.066,-0.015,0.014,100.0,100.0,101.0,13.4,1505.2,327.7,-0.8,1.8,2470.426,13.28,0.067,102.8
2021-08-27T05:40:03,42.805,6.029,0.051,-0.024,0.02,101.0,101.0,101.0,13.4,1505.2,326.5,-0.7,1.8,2470.444,13.28,0.056,115.2
2021-08-27T05:43:03,42.805,6.029,0.032,-0.013,-0.013,101.0,101.0,100.0,13.3,1505.2,326.9,-0.7,1.8,2470.441,13.28,0.034,112.1
2021-08-27T05:46:03,42.805,6.029,0.046,-0.014,0.007,101.0,100.0,101.0,13.4,1505.2,326.4,-0.7,1.8,2470.437,13.28,0.048,106.9
2021-08-27T05:49:03,42.805,6.029,0.042,-0.022,0.009,101.0,103.0,99.0,13.4,1505.2,329.6,-0.7,1.8,2470.44,13.28,0.047,117.6
2021-08-27T05:52:03,42.805,6.029,0.039,-0.023,-0.006,100.0,102.0,101.0,13.4,1505.2,331.0,-0.7,1.8,2470.438,13.28,0.045,120.5
2021-08-27T05:55:03,42.805,6.029,0.053,-0.042,-0.042,101.0,101.0,100.0,13.4,1505.2,328.0,-0.8,1.8,2470.469,13.28,0.067,128.4
2021-08-27T05:58:03,42.805,6.029,0.045,-0.015,0.026,99.0,102.0,100.0,13.3,1505.2,326.9,-0.7,1.8,2470.48,13.28,0.047,108.4
2021-08-27T06:04:03,42.805,6.029,0.047,-0.024,-0.004,99.0,102.0,101.0,13.3,1505.2,325.4,-0.7,1.8,2470.424,13.28,0.052,117.0
2021-08-27T06:07:03,42.805,6.029,0.073,-0.01,-0.015,100.0,102.0,100.0,13.4,1505.2,329.7,-0.8,1.8,2470.458,13.28,0.073,97.8
2021-08-27T06:10:03,42.805,6.029,0.041,-0.016,-0.001,100.0,101.0,100.0,13.4,1505.2,327.1,-0.7,1.8,2470.443,13.28,0.044,111.3
2021-08-27T06:13:03,42.805,6.029,0.04,-0.041,-0.024,100.0,102.0,99.0,13.3,1505.2,329.5,-0.8,1.8,2470.479,13.28,0.057,135.7
2021-08-27T06:16:03,42.805,6.029,0.038,0.008,0.006,101.0,102.0,99.0,13.4,1505.2,326.8,-0.8,1.8,2470.441,13.28,0.038,78.1
2021-08-27T06:19:03,42.805,6.029,0.056,-0.006,0.014,101.0,100.0,100.0,13.4,1505.2,325.5,-0.8,1.8,2470.487,13.28,0.056,96.1
2021-08-27T06:22:03,42.805,6.029,0.045,-0.025,0.012,100.0,99.0,100.0,13.4,1505.2,327.1,-0.8,1.8,2470.457,13.28,0.051,119.1
2021-08-27T06:25:03,42.805,6.029,0.061,-0.032,-0.005,101.0,100.0,100.0,13.3,1505.2,327.0,-0.8,1.8,2470.425,13.28,0.068,117.7
2021-08-27T06:28:03,42.805,6.029,0.045,-0.004,0.011,100.0,101.0,99.0,13.3,1505.2,327.2,-0.7,1.8,2470.44,13.28,0.045,95.1
2021-08-27T06:31:03,42.805,6.029,0.052,-0.026,-0.019,100.0,101.0,101.0,13.4,1505.2,326.0,-0.8,1.8,2470.445,13.28,0.058,116.6
2021-08-27T06:34:03,42.805,6.029,0.04,-0.008,0.007,100.0,102.0,100.0,13.3,1505.2,325.5,-0.8,1.9,2470.44,13.28,0.04,101.3
2021-08-27T06:37:03,42.805,6.029,0.035,-0.025,-0.046,100.0,100.0,101.0,13.3,1505.2,327.3,-0.8,1.8,2470.459,13.28,0.043,125.5
2021-08-27T06:40:03,42.805,6.029,0.029,0.012,0.018,99.0,101.0,101.0,13.4,1505.2,325.0,-0.8,1.8,2470.432,13.28,0.031,67.5
2021-08-27T06:43:03,42.805,6.029,0.07,-0.02,0.037,100.0,102.0,100.0,13.3,1505.2,325.7,-0.7,1.8,2470.449,13.28,0.072,105.9
2021-08-27T06:46:03,42.805,6.029,0.035,0.001,0.03,101.0,100.0,99.0,13.3,1505.2,328.2,-0.7,1.9,2470.484,13.28,0.035,88.4
2021-08-27T06:49:03,42.805,6.029,0.076,-0.027,0.013,100.0,100.0,100.0,13.4,1505.2,326.1,-0.8,1.8,2470.464,13.28,0.08,109.6
2021-08-27T06:52:03,42.805,6.029,0.065,-0.024,0.016,100.0,100.0,100.0,13.3,1505.2,325.3,-0.7,1.8,2470.452,13.28,0.069,110.3
2021-08-27T06:55:03,42.805,6.029,0.056,-0.032,-0.025,100.0,100.0,100.0,13.4,1505.2,330.1,-0.8,1.8,2470.475,13.28,0.064,119.7
2021-08-27T06:58:03,42.805,6.029,0.034,-0.045,-0.045,101.0,99.0,99.0,13.4,1505.2,329.1,-0.7,1.8,2470.468,13.28,0.056,142.9
2021-08-27T07:04:03,42.805,6.029,0.055,-0.047,-0.011,99.0,100.0,100.0,13.4,1505.2,329.0,-0.8,1.8,2470.484,13.28,0.072,130.5
2021-08-27T07:07:03,42.805,6.029,0.062,-0.025,0.0,100.0,100.0,100.0,13.3,1505.2,326.0,-0.8,1.9,2470.508,13.28,0.066,112.0
2021-08-27T07:10:03,42.805,6.029,0.02,-0.016,-0.01,101.0,99.0,100.0,13.3,1505.2,330.1,-0.7,1.8,2470.482,13.28,0.025,128.7
2021-08-27T07:13:03,42.805,6.029,0.015,-0.036,-0.032,100.0,100.0,100.0,13.4,1505.2,328.4,-0.8,1.8,2470.526,13.28,0.039,157.4
2021-08-27T07:16:03,42.805,6.029,0.057,-0.032,-0.005,100.0,99.0,99.0,13.4,1505.2,327.7,-0.8,1.8,2470.455,13.28,0.065,119.3
2021-08-27T07:19:03,42.805,6.029,0.02,-0.009,-0.014,101.0,100.0,101.0,13.3,1505.2,328.7,-0.7,1.8,2470.459,13.28,0.021,114.2
2021-08-27T07:22:03,42.805,6.029,0.015,-0.016,-0.003,101.0,100.0,99.0,13.3,1505.2,327.2,-0.8,1.8,2470.508,13.28,0.021,136.9
2021-08-27T07:25:03,42.805,6.029,0.042,-0.029,0.001,100.0,100.0,100.0,13.3,1505.2,329.4,-0.7,1.8,2470.503,13.28,0.051,124.6
2021-08-27T07:28:03,42.805,6.029,0.035,-0.017,0.001,100.0,101.0,100.0,13.4,1505.2,327.3,-0.7,1.9,2470.499,13.28,0.038,115.9
2021-08-27T07:31:03,42.805,6.029,0.011,-0.03,-0.013,99.0,100.0,101.0,13.4,1505.2,327.3,-0.7,1.8,2470.488,13.28,0.031,159.9
2021-08-27T07:34:03,42.805,6.029,0.048,-0.028,-0.025,99.0,101.0,100.0,13.4,1505.2,328.8,-0.8,1.8,2470.483,13.28,0.055,120.3
2021-08-27T07:37:03,42.805,6.029,0.013,-0.037,-0.033,99.0,102.0,100.0,13.4,1505.2,326.4,-0.8,1.8,2470.508,13.28,0.039,160.6
2021-08-27T07:40:03,42.805,6.029,0.037,-0.024,0.009,101.0,101.0,100.0,13.4,1505.2,328.6,-0.7,1.8,2470.518,13.28,0.044,123.0
2021-08-27T07:43:03,42.805,6.029,0.054,-0.01,-0.004,101.0,101.0,100.0,13.4,1505.2,328.3,-0.7,1.8,2470.485,13.28,0.054,100.5
2021-08-27T07:46:03,42.805,6.029,0.022,-0.014,-0.016,100.0,99.0,100.0,13.4,1505.2,328.6,-0.8,1.8,2470.483,13.28,0.026,122.5
2021-08-27T07:49:03,42.805,6.029,0.048,-0.002,0.044,102.0,99.0,100.0,13.4,1505.2,324.8,-0.7,1.8,2470.479,13.28,0.048,92.4
2021-08-27T07:52:03,42.805,6.029,0.047,-0.003,0.035,100.0,100.0,100.0,13.4,1505.2,326.9,-0.8,1.8,2470.512,13.28,0.047,93.6
2021-08-27T07:55:03,42.805,6.029,0.054,-0.03,-0.006,100.0,102.0,100.0,13.4,1505.2,328.3,-0.8,1.8,2470.518,13.28,0.061,119.1
2021-08-27T07:58:03,42.805,6.029,0.049,-0.032,-0.002,99.0,101.0,100.0,13.4,1505.2,325.7,-0.7,1.8,2470.506,13.28,0.058,123.2
2021-08-27T08:04:03,42.805,6.029,0.068,-0.023,0.015,100.0,102.0,100.0,13.3,1505.2,330.6,-0.7,1.8,2470.528,13.28,0.071,108.7
2021-08-27T08:07:03,42.805,6.029,0.017,-0.011,-0.012,99.0,103.0,100.0,13.4,1505.2,328.4,-0.7,1.8,2470.553,13.28,0.02,122.9
2021-08-27T08:10:03,42.805,6.029,0.05,-0.026,-0.012,100.0,101.0,100.0,13.3,1505.2,325.1,-0.8,1.8,2470.545,13.28,0.056,117.5
2021-08-27T08:13:03,42.805,6.029,0.026,-0.021,-0.008,99.0,101.0,99.0,13.3,1505.2,326.3,-0.8,1.8,2470.557,13.28,0.033,128.9
2021-08-27T08:16:03,42.805,6.029,0.026,-0.006,-0.014,99.0,102.0,100.0,13.4,1505.2,328.4,-0.8,1.8,2470.533,13.28,0.026,103.0
2021-08-27T08:19:03,42.805,6.029,0.036,-0.029,0.006,101.0,102.0,98.0,13.4,1505.2,329.0,-0.8,1.8,2470.507,13.28,0.046,128.9
2021-08-27T08:22:03,42.805,6.029,0.024,-0.011,0.016,98.0,100.0,101.0,13.4,1505.2,329.9,-0.8,1.8,2470.542,13.28,0.026,114.6
2021-08-27T08:25:03,42.805,6.029,0.035,0.006,-0.007,99.0,102.0,99.0,13.4,1505.2,325.4,-0.8,1.8,2470.564,13.28,0.035,80.3
2021-08-27T08:28:03,42.805,6.029,0.037,-0.006,-0.009,100.0,101.0,100.0,13.3,1505.2,330.1,-0.8,1.9,2470.521,13.28,0.037,99.2
2021-08-27T08:31:03,42.805,6.029,0.017,-0.017,0.025,101.0,102.0,99.0,13.4,1505.2,328.6,-0.7,1.8,2470.533,13.28,0.024,135.0
2021-08-27T08:34:03,42.805,6.029,0.035,-0.001,0.017,100.0,102.0,99.0,13.4,1505.2,329.4,-0.7,1.8,2470.557,13.28,0.035,91.6
2021-08-27T08:37:03,42.805,6.029,0.029,-0.025,-0.011,101.0,102.0,99.0,13.3,1505.2,330.3,-0.7,1.8,2470.524,13.28,0.038,130.8
2021-08-27T08:40:03,42.805,6.029,0.025,-0.008,-0.007,100.0,101.0,100.0,13.4,1505.2,329.5,-0.8,1.8,2470.53,13.28,0.026,107.7
2021-08-27T08:43:03,42.805,6.029,0.033,-0.03,0.001,100.0,101.0,100.0,13.3,1505.2,326.8,-0.8,1.8,2470.538,13.28,0.044,132.3
2021-08-27T08:46:03,42.805,6.029,0.055,-0.041,-0.028,102.0,101.0,99.0,13.4,1505.2,329.2,-0.8,1.8,2470.584,13.28,0.068,126.7
2021-08-27T08:49:03,42.805,6.029,0.012,-0.007,-0.005,101.0,101.0,100.0,13.4,1505.2,327.3,-0.8,1.8,2470.502,13.28,0.013,120.3
2021-08-27T08:52:03,42.805,6.029,0.038,-0.014,-0.014,101.0,101.0,100.0,13.4,1505.2,329.6,-0.7,1.8,2470.582,13.28,0.04,110.2
2021-08-27T08:55:03,42.805,6.029,0.037,-0.012,-0.008,99.0,102.0,99.0,13.3,1505.2,326.0,-0.7,1.8,2470.527,13.28,0.038,108.0
2021-08-27T08:58:03,42.805,6.029,0.015,-0.013,-0.025,100.0,101.0,100.0,13.4,1505.2,328.1,-0.8,1.8,2470.55,13.28,0.019,130.9
2021-08-27T09:04:03,42.805,6.029,0.03,-0.014,0.002,101.0,101.0,100.0,13.4,1505.2,326.5,-0.8,1.8,2470.607,13.28,0.033,115.0
2021-08-27T09:07:03,42.805,6.029,0.029,0.007,0.028,100.0,101.0,101.0,13.4,1505.2,327.5,-0.7,1.8,2470.549,13.28,0.029,76.4
2021-08-27T09:10:03,42.805,6.029,0.034,0.004,0.023,100.0,101.0,100.0,13.4,1505.2,327.2,-0.8,1.8,2470.544,13.28,0.034,83.3
2021-08-27T09:13:03,42.805,6.029,0.037,-0.014,0.012,100.0,102.0,99.0,13.4,1505.2,326.8,-0.7,1.8,2470.575,13.28,0.039,110.7
2021-08-27T09:16:03,42.805,6.029,0.065,-0.023,0.022,100.0,102.0,100.0,13.4,1505.2,327.7,-0.8,1.8,2470.552,13.28,0.068,109.5
2021-08-27T09:19:03,42.805,6.029,0.028,-0.008,0.005,101.0,103.0,100.0,13.3,1505.2,327.9,-0.7,1.8,2470.534,13.28,0.029,105.9
2021-08-27T09:22:03,42.805,6.029,0.016,0.001,-0.004,100.0,102.0,100.0,13.4,1505.2,329.4,-0.7,1.9,2470.556,13.28,0.016,86.4
2021-08-27T09:25:03,42.805,6.029,0.066,-0.022,-0.007,100.0,104.0,100.0,13.4,1505.2,330.3,-0.7,1.8,2470.537,13.28,0.069,108.4
2021-08-27T09:28:03,42.805,6.029,0.032,-0.013,-0.013,100.0,103.0,100.0,13.4,1505.2,329.3,-0.7,1.8,2470.585,13.28,0.034,112.1
2021-08-27T09:31:03,42.805,6.029,0.03,-0.001,0.027,102.0,102.0,99.0,13.3,1505.2,331.1,-0.8,1.8,2470.555,13.28,0.03,91.9
2021-08-27T09:34:03,42.805,6.029,0.017,-0.011,-0.013,101.0,101.0,100.0,13.4,1505.2,326.3,-0.8,1.8,2470.547,13.28,0.02,122.9
2021-08-27T09:37:03,42.805,6.029,0.031,-0.018,-0.009,101.0,102.0,100.0,13.3,1505.2,328.3,-0.8,1.8,2470.56,13.28,0.035,120.1
2021-08-27T09:40:03,42.805,6.029,0.027,-0.021,0.005,100.0,102.0,100.0,13.4,1505.2,325.2,-0.8,1.8,2470.554,13.28,0.034,127.9
2021-08-27T09:43:03,42.805,6.029,0.021,-0.004,-0.006,101.0,101.0,100.0,13.3,1505.2,325.0,-0.8,1.8,2470.526,13.28,0.021,100.8
2021-08-27T09:46:03,42.805,6.029,0.034,-0.01,0.001,101.0,102.0,100.0,13.4,1505.2,330.9,-0.7,1.8,2470.55,13.28,0.035,106.4
2021-08-27T09:49:03,42.805,6.029,0.011,-0.024,0.0,100.0,102.0,99.0,13.4,1505.2,327.2,-0.8,1.9,2470.541,13.28,0.026,155.4
2021-08-27T09:52:03,42.805,6.029,0.035,-0.005,-0.019,102.0,101.0,100.0,13.3,1505.2,328.4,-0.7,1.8,2470.557,13.28,0.035,98.1
2021-08-27T09:55:03,42.805,6.029,0.003,0.002,0.021,99.0,104.0,100.0,13.3,1505.2,329.8,-0.7,1.8,2470.591,13.28,0.003,56.3
2021-08-27T09:58:03,42.805,6.029,0.053,-0.029,-0.022,100.0,102.0,100.0,13.4,1505.2,331.1,-0.7,1.8,2470.579,13.28,0.06,118.7